Location: Waco, TX
(31.5480°N, 97.1670°W)
Time: 07:08:46
(UTC-05:00)

ISS - Pass Details

Date: 19 May 2018
Orbit: 402 x 407 km, 51.6° (Epoch: 25 May)

Event Time Altitude Azimuth Distance (km) Brightness Sun altitude
Rises 06:28:02 0° 314° (NW) 2,313 -0.2 -1.2°
Reaches altitude 10° 06:30:06 10° 314° (NW) 1,452 -1.2 -0.8°
Maximum altitude 06:33:21 87° 230° (SW) 405 -3.8 -0.1°
Drops below altitude 10° 06:36:36 10° 137° (SE) 1,446 -0.7 0.5°
Sets 06:38:40 0° 137° (SE) 2,302 0.3 0.9°
